Hutchinson, MN

3:59 AM CDT on April 24, 2018 (GMT -0500)
Hutchinson Municipal-Butler

Weather History for KHCD - September, 2011

Change the Weather History Date:

Sunday, September 11, 2011

  Actual Average Record
Temperature  
Mean Temperature 70 °F -  
Max Temperature 87 °F 76 °F 94 °F (2012)
Min Temperature 54 °F 51 °F 37 °F (1964)
Cooling Degree Days 6    
Growing Degree Days 20 (Base 50)    
Moisture  
Dew Point 59 °F    
Average Humidity 76    
Maximum Humidity 95    
Minimum Humidity 35    
Precipitation  
Precipitation 0.00 in - - ()
Sea Level Pressure  
Sea Level Pressure 29.98 in    
Wind  
Wind Speed 2 mph (West)    
Max Wind Speed 12 mph    
Max Gust Speed 16 mph    
Visibility 10 miles    
Events      
Averages and records for this station are not official NWS values.
T = Trace of Precipitation, MM = Missing Value Source: NWS Daily Summary

Daily Weather History Graph

Daily Weather History Graph

Search for Another Location

Airport or City:

Astronomy

Sep. 11, 2011 Rise Set
Actual Time 6:51 AM CDT 7:36 PM CDT
Civil Twilight 6:21 AM CDT 8:05 PM CDT
Nautical Twilight 5:46 AM CDT 8:40 PM CDT
Astronomical Twilight 5:09 AM CDT 9:17 PM CDT
Moon 6:56 PM CDT (9/11) 6:11 AM CDT (9/11)
Length of Visible Light 13h 44m
Length of Day
12h 45m
Full, 100% of the Moon is Illuminated
Sep 11
Full
Sep 12
Full
Sep 20
Last Quarter
Sep 27
New
Oct 3
First Quarter

Hourly Weather History & Observations

Time (CDT) Temp. Heat Index Dew Point Humidity Pressure Visibility Wind Dir Wind Speed Gust Speed Precip Events Conditions
12:13 AM 59.5 °F - 57.6 °F 93% 30.02 in 10.0 mi Calm Calm - N/A   Clear
12:33 AM 59.5 °F - 57.6 °F 93% 30.02 in 10.0 mi Calm Calm - N/A   Clear
12:53 AM 59.5 °F - 57.6 °F 93% 30.02 in 10.0 mi Calm Calm - N/A   Clear
1:13 AM 59.5 °F - 57.7 °F 94% 30.02 in 10.0 mi Calm Calm - N/A   Clear
1:33 AM 57.4 °F - 55.6 °F 94% 30.02 in 10.0 mi Calm Calm - N/A   Clear
1:53 AM 59.5 °F - 58.1 °F 95% 30.01 in 10.0 mi Calm Calm - N/A   Clear
2:13 AM 57.2 °F - 55.4 °F 94% 30.01 in 10.0 mi Calm Calm - N/A   Clear
2:34 AM 57.2 °F - 55.4 °F 94% 30.01 in 7.0 mi Calm Calm - N/A   Clear
2:53 AM 57.2 °F - 55.4 °F 94% 30.01 in 10.0 mi Calm Calm - N/A   Clear
3:13 AM 57.2 °F - 55.4 °F 94% 30.01 in 10.0 mi Calm Calm - N/A   Clear
3:34 AM 57.0 °F - 55.4 °F 94% 30.01 in 10.0 mi Calm Calm - N/A   Clear
3:53 AM 57.2 °F - 55.6 °F 94% 30.01 in 10.0 mi Calm Calm - N/A   Clear
4:13 AM 57.2 °F - 55.6 °F 94% 30.01 in 10.0 mi West 3.5 mph - N/A   Clear
4:33 AM 57.2 °F - 55.4 °F 94% 30.01 in 10.0 mi Calm Calm - N/A   Clear
4:53 AM 57.2 °F - 55.4 °F 94% 30.01 in 10.0 mi Calm Calm - N/A   Clear
5:13 AM 57.2 °F - 55.4 °F 94% 30.01 in 10.0 mi Calm Calm - N/A   Clear
5:33 AM 56.3 °F - 54.7 °F 94% 30.01 in 10.0 mi Calm Calm - N/A   Clear
5:53 AM 57.2 °F - 55.4 °F 94% 30.01 in 10.0 mi Calm Calm - N/A   Clear
6:13 AM 56.8 °F - 55.2 °F 94% 30.01 in 10.0 mi Calm Calm - N/A   Clear
6:33 AM 55.9 °F - 54.1 °F 94% 30.01 in 10.0 mi Calm Calm - N/A   Clear
7:13 AM 54.5 °F - 52.9 °F 94% 30.01 in 7.0 mi Calm Calm - N/A   Clear
7:32 AM 55.6 °F - 54.0 °F 94% 30.01 in 7.0 mi Calm Calm - N/A   Clear
7:53 AM 58.1 °F - 56.7 °F 95% 30.01 in 7.0 mi Calm Calm - N/A   Clear
8:13 AM 60.8 °F - 59.2 °F 94% 30.02 in 10.0 mi Calm Calm - N/A   Clear
8:33 AM 63.7 °F - 61.2 °F 91% 30.01 in 10.0 mi Calm Calm - N/A   Clear
8:53 AM 67.5 °F - 62.4 °F 84% 30.02 in 10.0 mi WSW 3.5 mph - N/A   Clear
9:13 AM 69.8 °F - 62.8 °F 78% 30.01 in 10.0 mi Calm Calm - N/A   Clear
9:33 AM 71.8 °F - 63.3 °F 75% 30.02 in 10.0 mi WSW 3.5 mph - N/A   Clear
9:53 AM 74.7 °F - 63.9 °F 69% 30.01 in 10.0 mi WSW 5.8 mph - N/A   Clear
10:33 AM 77.2 °F - 64.2 °F 64% 30.02 in 10.0 mi West 4.6 mph - N/A   Clear
10:53 AM 77.7 °F - 64.0 °F 63% 30.01 in 10.0 mi West 5.8 mph - N/A   Clear
11:13 AM 79.7 °F - 63.5 °F 58% 30.01 in 10.0 mi West 6.9 mph - N/A   Clear
11:33 AM 79.9 °F - 62.2 °F 55% 30.01 in 10.0 mi WSW 5.8 mph - N/A   Clear
11:53 AM 82.4 °F 83.4 °F 62.8 °F 51% 30.00 in 10.0 mi West 6.9 mph - N/A   Clear
12:13 PM 82.4 °F 83.0 °F 61.5 °F 49% 30.00 in 10.0 mi West 9.2 mph - N/A   Clear
12:53 PM 83.7 °F 83.9 °F 60.8 °F 46% 29.99 in 10.0 mi West 10.4 mph - N/A   Clear
1:13 PM 84.2 °F 83.8 °F 58.8 °F 42% 29.99 in 10.0 mi West 8.1 mph - N/A   Clear
1:33 PM 85.1 °F 84.4 °F 58.1 °F 40% 29.98 in 10.0 mi West 8.1 mph - N/A   Clear
2:13 PM 87.3 °F 86.5 °F 59.0 °F 38% 29.97 in 10.0 mi West 8.1 mph - N/A   Clear
2:33 PM 87.3 °F 86.1 °F 57.6 °F 36% 29.97 in 10.0 mi WNW 10.4 mph - N/A   Clear
2:53 PM 87.3 °F 86.5 °F 58.5 °F 38% 29.97 in 10.0 mi West 9.2 mph - N/A   Clear
3:13 PM 87.3 °F 86.1 °F 57.4 °F 36% 29.96 in 10.0 mi West 10.4 mph 16.1 mph N/A   Clear
3:34 PM 87.3 °F 85.9 °F 56.3 °F 35% 29.96 in 10.0 mi WSW 11.5 mph - N/A   Clear
3:53 PM 87.3 °F 85.9 °F 56.5 °F 35% 29.95 in 10.0 mi West 11.5 mph - N/A   Clear
5:13 PM 85.1 °F 84.1 °F 56.7 °F 38% 29.94 in 10.0 mi West 6.9 mph - N/A   Clear
5:33 PM 83.8 °F 83.1 °F 57.4 °F 40% 29.94 in 10.0 mi West 5.8 mph - N/A   Clear
5:53 PM 83.5 °F 82.9 °F 57.4 °F 41% 29.94 in 10.0 mi West 4.6 mph - N/A   Clear
6:14 PM 82.4 °F 83.9 °F 64.2 °F 54% 29.94 in 10.0 mi Calm Calm - N/A   Clear
6:33 PM 81.0 °F 82.5 °F 63.7 °F 56% 29.93 in 10.0 mi Calm Calm - N/A   Clear
6:53 PM 79.5 °F - 64.0 °F 59% 29.93 in 10.0 mi Calm Calm - N/A   Clear
7:13 PM 74.8 °F - 65.1 °F 72% 29.93 in 10.0 mi Calm Calm - N/A   Clear
7:33 PM 70.2 °F - 64.0 °F 81% 29.93 in 10.0 mi Calm Calm - N/A   Clear
8:13 PM 69.4 °F - 65.7 °F 88% 29.94 in 10.0 mi Calm Calm - N/A   Clear
8:33 PM 65.8 °F - 62.1 °F 88% 29.94 in 10.0 mi Calm Calm - N/A   Clear
8:53 PM 63.7 °F - 60.1 °F 88% 29.95 in 10.0 mi Calm Calm - N/A   Clear
9:14 PM 63.1 °F - 60.3 °F 90% 29.95 in 10.0 mi Calm Calm - N/A   Clear
9:33 PM 62.1 °F - 59.5 °F 91% 29.95 in 10.0 mi Calm Calm - N/A   Clear
9:53 PM 62.1 °F - 59.2 °F 90% 29.94 in 10.0 mi Calm Calm - N/A   Clear
10:14 PM 62.1 °F - 59.4 °F 91% 29.94 in 10.0 mi Calm Calm - N/A   Clear
10:33 PM 62.1 °F - 59.4 °F 91% 29.94 in 10.0 mi Calm Calm - N/A   Clear
10:53 PM 64.0 °F - 59.5 °F 85% 29.94 in 10.0 mi Calm Calm - N/A   Clear
11:13 PM 63.7 °F - 60.1 °F 88% 29.94 in 10.0 mi Calm Calm - N/A   Clear
11:33 PM 62.1 °F - 58.5 °F 88% 29.94 in 10.0 mi Calm Calm - N/A   Clear
11:53 PM 62.1 °F - 58.1 °F 87% 29.93 in 10.0 mi Calm Calm - N/A   Clear